Weather History for Whiting Fld NAS, FL

Change the Weather History Date:

Saturday, November 3, 2012

  Actual Average Record
Temperature  
Mean Temperature 70 °F -  
Max Temperature 86 °F 72 °F 86 °F (2012)
Min Temperature 57 °F 53 °F 37 °F (1996)
Cooling Degree Days 6    
Growing Degree Days 20 (Base 50)    
Moisture  
Dew Point 63 °F    
Average Humidity 86    
Maximum Humidity 100    
Minimum Humidity 44    
Precipitation  
Precipitation 0.00 in - - ()
Sea Level Pressure  
Sea Level Pressure 30.05 in    
Wind  
Wind Speed 5 mph (West)    
Max Wind Speed 10 mph    
Max Gust Speed -    
Visibility 5 miles    
Events Fog    
Averages and records for this station are not official NWS values.
T = Trace of Precipitation, MM = Missing Value Source: NWS Daily Summary

Daily Weather History Graph

Daily Weather History Graph

Search for Another Location

Airport:

Trip Planner

Search our weather history database for the weather conditions in past years. The results will help you decide how hot, cold, wet, or windy it might be!

Date:

Astronomy

Nov. 03, 2012 Rise Set
Actual Time 7:04 AM CDT 5:57 PM CDT
Civil Twilight 6:39 AM CDT 6:22 PM CDT
Nautical Twilight 6:11 AM CDT 6:51 PM CDT
Astronomical Twilight 5:43 AM CDT 7:19 PM CDT
Moon 9:44 PM CDT (11/3) 11:01 AM CDT (11/3)
Length of Visible Light 11h 43m
Length of Day
10h 53m
Waning Gibbous, 80% of the Moon is Illuminated
Nov 3
Waning Gibbous
Nov 6
Last Quarter
Nov 13
New
Nov 20
First Quarter
Nov 28
Full

Hourly Weather History & Observations

Time (CDT) Temp. Heat Index Dew Point Humidity Pressure Visibility Wind Dir Wind Speed Gust Speed Precip Events Conditions
12:56 AM 66.0 °F - 64.9 °F 96% 30.02 in 3.0 mi West 6.9 mph - N/A   Clear
1:14 AM 64.4 °F - 64.4 °F 100% 30.06 in 2.5 mi West 5.8 mph - N/A   Clear
1:56 AM 66.0 °F - 64.9 °F 96% 30.01 in 3.0 mi West 5.8 mph - N/A   Clear
2:30 AM 64.4 °F - 64.4 °F 100% 30.05 in 2.5 mi West 5.8 mph - N/A   Clear
2:56 AM 64.9 °F - 64.9 °F 100% 30.01 in 2.0 mi West 5.8 mph - N/A   Clear
3:56 AM 64.9 °F - 64.0 °F 97% 30.01 in 2.0 mi West 5.8 mph - N/A   Partly Cloudy
4:06 AM 64.4 °F - 64.4 °F 100% 30.06 in 1.8 mi West 5.8 mph - N/A   Partly Cloudy
4:13 AM 64.4 °F - 64.4 °F 100% 30.06 in 2.0 mi West 5.8 mph - N/A   Partly Cloudy
4:20 AM 64.4 °F - 64.4 °F 100% 30.06 in 1.8 mi West 4.6 mph - N/A   Mostly Cloudy
4:31 AM 64.4 °F - 64.4 °F 100% 30.06 in 1.8 mi West 4.6 mph - N/A   Scattered Clouds
4:39 AM 64.4 °F - 64.4 °F 100% 30.07 in 1.0 mi WNW 3.5 mph - N/A   Mist
4:46 AM 62.6 °F - 62.6 °F 100% 30.07 in 0.2 mi Calm Calm - N/A Fog Fog
4:56 AM 63.0 °F - 63.0 °F 100% 30.03 in 0.2 mi Calm Calm - N/A Fog Fog
5:56 AM 59.0 °F - 59.0 °F 100% 30.05 in 0.2 mi Calm Calm - N/A Fog Fog
6:56 AM 57.0 °F - 57.0 °F 100% 30.06 in 0.2 mi Calm Calm - N/A Fog Fog
7:56 AM 59.0 °F - 59.0 °F 100% 30.08 in 0.2 mi Calm Calm - N/A Fog Fog
8:10 AM 62.6 °F - 62.6 °F 100% 30.13 in 0.8 mi Calm Calm - N/A   Mist
8:14 AM 62.6 °F - 62.6 °F 100% 30.13 in 1.8 mi Calm Calm - N/A   Scattered Clouds
8:18 AM 62.6 °F - 62.6 °F 100% 30.13 in 3.0 mi Calm Calm - N/A   Scattered Clouds
8:56 AM 68.0 °F - 66.9 °F 96% 30.09 in 6.0 mi NW 5.8 mph - N/A   Clear
9:56 AM 75.0 °F - 66.9 °F 76% 30.09 in 10.0 mi NW 5.8 mph - N/A   Clear
10:56 AM 80.1 °F 81.9 °F 64.9 °F 60% 30.09 in 10.0 mi NW 8.1 mph - N/A   Clear
11:56 AM 82.9 °F 84.4 °F 64.0 °F 53% 30.07 in 10.0 mi NNW 6.9 mph - N/A   Clear
12:56 PM 82.9 °F 83.7 °F 62.1 °F 49% 30.05 in 10.0 mi SW 3.5 mph - N/A   Scattered Clouds
1:56 PM 84.9 °F 85.4 °F 62.1 °F 46% 30.03 in 10.0 mi Variable 5.8 mph - N/A   Partly Cloudy
2:56 PM 84.9 °F 85.0 °F 61.0 °F 44% 30.01 in 10.0 mi WSW 9.2 mph - N/A   Mostly Cloudy
3:56 PM 82.0 °F 82.7 °F 61.0 °F 49% 30.01 in 10.0 mi West 4.6 mph - N/A   Partly Cloudy
4:56 PM 80.1 °F 81.9 °F 64.9 °F 60% 30.01 in 10.0 mi SSW 10.4 mph - N/A   Clear
5:56 PM 75.0 °F - 63.0 °F 66% 30.01 in 10.0 mi SSW 5.8 mph - N/A   Clear
6:56 PM 71.1 °F - 63.0 °F 75% 30.03 in 10.0 mi SW 4.6 mph - N/A   Clear
7:56 PM 70.0 °F - 63.0 °F 78% 30.03 in 10.0 mi SW 5.8 mph - N/A   Clear
8:56 PM 69.1 °F - 64.9 °F 87% 30.04 in 10.0 mi SW 5.8 mph - N/A   Clear
9:56 PM 68.0 °F - 64.9 °F 90% 30.05 in 9.0 mi WSW 9.2 mph - N/A   Clear
10:56 PM 66.0 °F - 64.9 °F 96% 30.04 in 7.0 mi West 5.8 mph - N/A   Clear
11:56 PM 64.9 °F - 64.0 °F 97% 30.04 in 5.0 mi West 3.5 mph - N/A   Clear